Location: Bermeries
(50.2863°N, 3.7551°E)
Time: 20:15:48
(UTC+00:00)

Cosmos 1763 Rocket - Pass Details

Date: 23 May 2024
Orbit: 730 x 778 km, 74.0° (Epoch: 14 June)

Event Time Altitude Azimuth Distance (km) Brightness Sun altitude
Rises 00:48:49 0° 331° (NNW) 3,272 7.5 -17.5°
Reaches altitude 10° 00:51:18 10° 325° (NW) 2,340 6.5 -17.4°
Maximum altitude 00:56:18 43° 255° (WSW) 1,085 4.0 -17.2°
Enters shadow 00:58:22 29° 206° (SSW) 1,383 4.2 -17.1°
